Lid_Strength_Index
1 1 1 2 2 2 2 2 2 3 3 2 3 3 3 3 4 3 4 5 5 1 1 4 4 4 4 7 7 8 12 13 12 11 10 8 8 5 5 6 5 5 5 4 4
1 1 1 1 2 2 2 2 3 3 2 3 3 3 3 3 5 4 3 1 -0 -0 5 5 6 6 8 8 8 10 13 11 9 9 9 8 9 8 7 7 7 6 4 5 5
1 1 1 2 1 2 2 2 3 3 3 3 3 3 3 4 5 6 0 -0 -0 2 4 4 5 6 8 8 8 9 11 9 8 8 9 10 9 8 9 10 7 8 6 5 5
1 1 1 2 1 2 2 3 4 4 3 3 3 3 3 4 9 6 0 -0 0 2 4 4 6 8 9 10 8 10 8 8 8 7 9 9 8 8 9 7 5 5 4 5 4
2 2 2 2 1 2 3 4 4 4 4 3 3 3 5 6 5 4 -1 0 3 3 4 6 7 8 9 8 8 9 8 7 7 7 8 7 8 8 8 5 4 4 4 5 4
2 2 2 2 2 3 4 4 4 4 4 3 3 3 6 9 3 2 2 3 4 5 5 6 6 6 8 8 9 8 8 8 7 8 8 8 8 8 7 5 5 5 5 5 4
2 2 2 2 3 4 4 4 4 4 4 3 3 4 7 8 3 3 3 4 4 4 5 4 5 7 7 8 6 7 9 8 8 8 9 8 10 9 7 6 7 6 5 5 4
2 2 2 3 4 5 5 5 5 4 4 3 3 6 8 3 3 4 4 4 3 4 4 4 5 6 7 6 7 9 9 12 8 8 8 9 13 8 8 8 8 7 7 5 4
2 2 2 4 5 5 5 5 5 4 4 4 5 6 7 2 4 4 3 4 4 3 4 3 5 7 8 10 11 10 13 12 10 9 9 10 12 8 8 7 8 7 7 6 5
2 2 4 5 5 5 6 5 5 4 4 4 4 7 5 6 5 5 5 4 5 5 5 6 8 9 10 11 15 12 12 13 12 10 9 11 11 9 8 8 8 8 8 6 5
3 4 5 5 5 5 7 8 7 8 7 7 7 6 6 5 5 6 5 5 6 7 10 7 10 12 10 9 9 10 11 12 11 9 10 11 12 10 9 9 9 8 8 8 5
4 5 5 5 5 5 7 8 7 8 11 7 7 7 6 6 8 7 5 8 8 11 9 10 11 8 7 7 9 11 12 13 11 9 10 12 12 11 10 9 8 7 8 7 6
4 5 5 5 6 7 7 6 5 4 10 9 7 7 7 7 9 8 7 8 10 10 10 11 9 7 8 10 10 11 12 12 11 11 11 11 13 12 9 8 7 7 6 6 6
5 5 5 6 8 6 7 5 4 5 14 11 9 8 7 7 9 6 7 8 9 10 9 10 8 8 10 10 10 13 9 10 11 13 16 11 17 13 10 9 8 7 9 7 5
5 5 5 5 8 8 6 5 5 7 21 9 10 6 7 9 9 9 6 8 11 10 10 11 10 9 10 10 9 11 9 10 11 13 14 13 15 15 9 10 9 8 7 6 5
5 5 5 7 8 7 5 5 7 15 20 12 9 10 10 9 9 8 8 7 7 10 10 11 8 10 10 8 9 8 10 11 11 13 17 13 13 14 12 10 9 8 7 6 7
6 6 7 6 8 6 6 7 16 21 11 13 12 10 11 11 10 10 10 11 12 14 14 12 11 9 8 11 9 10 13 17 18 18 18 12 13 13 10 8 7 7 8 8 6
6 6 6 7 6 6 7 12 20 14 14 11 12 12 13 12 12 11 12 14 11 12 15 16 16 10 8 9 11 11 12 16 20 20 17 12 16 13 8 7 6 7 7 7 7
7 8 7 6 6 7 10 20 17 14 12 13 12 14 14 12 13 12 13 13 12 11 14 15 15 10 9 9 9 11 14 10 13 14 17 16 13 10 7 8 7 7 7 8 7
9 8 8 5 6 8 13 16 14 11 11 12 15 13 16 14 14 13 13 11 12 11 10 12 17 12 10 9 10 10 9 14 13 18 19 16 15 14 11 10 8 9 8 7 6
8 11 7 5 6 11 18 16 13 11 10 12 13 14 14 14 13 14 13 11 10 11 11 13 14 15 12 13 13 12 12 11 11 14 17 18 17 10 10 9 9 8 7 7 6
9 15 7 6 14 13 16 13 11 12 10 11 11 12 13 12 14 14 14 11 9 10 13 12 14 18 15 12 10 10 12 12 15 16 15 16 17 8 8 8 7 8 7 6 6
11 11 7 8 16 15 13 13 11 12 12 11 12 11 11 12 14 13 12 9 8 10 11 12 14 18 17 14 11 12 11 11 11 12 15 19 17 8 8 7 7 7 6 6 6
11 16 12 10 11 13 14 13 13 10 11 10 11 10 11 12 11 13 12 10 9 10 7 9 13 15 18 16 13 14 13 12 12 14 14 15 14 10 9 9 8 7 6 6 6
11 14 12 15 14 12 12 12 13 13 10 10 12 12 12 14 13 13 12 11 10 9 9 11 15 13 12 12 12 13 13 13 12 12 14 12 12 10 10 9 9 7 6 6 6
14 13 11 12 12 13 13 13 13 12 11 12 12 11 11 13 12 14 12 11 12 9 9 8 13 12 14 11 11 12 12 11 11 11 11 11 12 9 7 7 8 7 7 7 6
10 9 11 13 13 13 13 12 11 10 10 9 10 11 11 10 9 9 9 9 9 9 10 10 12 14 17 12 12 16 12 11 10 9 10 12 10 8 8 8 8 8 7 7 6